TORONTO ISLAND, Ontario

6:50 AM EST on December 06, 2016 (GMT -0500)
Toronto-City Centre

Weather History for CYTZ - November, 2013

Change the Weather History Date:

Thursday, November 21, 2013

  Actual Average Record
Temperature  
Mean Temperature 40 °F -  
Max Temperature 44 °F 41 °F 57 °F (2003)
Min Temperature 37 °F 33 °F 19 °F (2008)
Degree Days  
Heating Degree Days 24    
Moisture  
Dew Point 34 °F    
Average Humidity 75    
Maximum Humidity 100    
Minimum Humidity 52    
Precipitation  
Precipitation 0.12 in - - ()
Sea Level Pressure  
Sea Level Pressure 30.35 in    
Wind  
Wind Speed 7 mph ()    
Max Wind Speed 13 mph    
Max Gust Speed 18 mph    
Visibility 8.7 miles    
Events Rain    
Averages and records for this station are not official NWS values.
T = Trace of Precipitation, MM = Missing Value Source: Averaged Metar Reports

Daily Weather History Graph

Daily Weather History Graph

Search for Another Location

Airport or City:

Trip Planner

Search our weather history database for the weather conditions in past years. The results will help you decide how hot, cold, wet, or windy it might be!

Date:

Astronomy

Nov. 21, 2013 Rise Set
Actual Time 7:19 AM EST 4:47 PM EST
Civil Twilight 6:48 AM EST 5:18 PM EST
Nautical Twilight 6:12 AM EST 5:53 PM EST
Astronomical Twilight 5:38 AM EST 6:27 PM EST
Moon 8:23 PM EST (11/21) 10:24 AM EST (11/21)
Length of Visible Light 10h 30m
Length of Day
9h 27m
Waning Gibbous, 85% of the Moon is Illuminated
Nov 21
Waning Gibbous
Nov 25
Last Quarter
Dec 2
New
Dec 9
First Quarter
Dec 17
Full

Hourly Weather History & Observations

Time (EST) Temp. Windchill Dew Point Humidity Pressure Visibility Wind Dir Wind Speed Gust Speed Precip Events Conditions
12:00 AM 37.4 °F 29.3 °F 26.6 °F 65% 30.43 in 9.0 mi East 12.7 mph 18.4 mph N/A   Clear
1:00 AM 38 °F - 27 °F 52% 30.42 in 10 mi East 10.4 mph - -  
1:00 AM 37.4 °F 29.8 °F 26.6 °F 65% 30.42 in 9.0 mi East 11.5 mph - N/A   Clear
2:00 AM 37.4 °F 30.8 °F 26.6 °F 65% 30.42 in 9.0 mi East 9.2 mph - N/A   Clear
3:00 AM 37.4 °F 32.8 °F 28.4 °F 70% 30.41 in 9.0 mi East 5.8 mph - N/A   Scattered Clouds
4:00 AM 39.2 °F 35.0 °F 26.6 °F 61% 30.40 in 9.0 mi East 5.8 mph - N/A   Overcast
5:00 AM 39.2 °F 35.9 °F 26.6 °F 61% 30.39 in 9.0 mi East 4.6 mph - N/A   Overcast
6:00 AM 39.2 °F 35.9 °F 28.4 °F 65% 30.39 in 9.0 mi East 4.6 mph - N/A   Mostly Cloudy
7:00 AM 40 °F - 29 °F 53% 30.40 in 10 mi ESE 4.6 mph - -   Overcast
7:00 AM 39.2 °F 35.9 °F 28.4 °F 65% 30.40 in 9.0 mi ESE 4.6 mph - N/A   Overcast
8:00 AM 41.0 °F 38.0 °F 28.4 °F 61% 30.40 in 9.0 mi ESE 4.6 mph - N/A   Overcast
9:00 AM 42.8 °F 40.1 °F 30.2 °F 61% 30.39 in 9.0 mi SE 4.6 mph - N/A   Overcast
10:00 AM 42.8 °F 38.6 °F 32.0 °F 66% 30.38 in 9.0 mi SE 6.9 mph - N/A   Overcast
11:00 AM 42.8 °F 38.6 °F 32.0 °F 66% 30.37 in 9.0 mi ESE 6.9 mph - N/A   Overcast
12:00 PM 44.6 °F 41.4 °F 32.0 °F 61% 30.36 in 9.0 mi SE 5.8 mph - N/A   Overcast
1:00 PM 44 °F - 35 °F 59% 30.36 in 10 mi SSE 6.9 mph - -   Overcast
1:00 PM 44.6 °F 40.2 °F 33.8 °F 66% 30.36 in 9.0 mi SSE 8.1 mph - N/A   Overcast
2:00 PM 42.8 °F 39.3 °F 35.6 °F 76% 30.35 in 9.0 mi SSE 5.8 mph - N/A   Overcast
3:00 PM 42.8 °F 38.0 °F 35.6 °F 76% 30.34 in 9.0 mi SSE 8.1 mph - N/A   Overcast
4:00 PM 42.8 °F 38.0 °F 37.4 °F 81% 30.33 in 9.0 mi South 8.1 mph - N/A   Overcast
4:04 PM 42.8 °F 38.0 °F 37.4 °F 81% 30.33 in 9.0 mi SSE 8.1 mph - N/A   Overcast
5:00 PM 42.8 °F 40.1 °F 39.2 °F 87% 30.33 in 9.0 mi SSE 4.6 mph - N/A   Overcast
6:00 PM 42.8 °F 40.1 °F 39.2 °F 87% 30.34 in 9.0 mi SE 4.6 mph - N/A   Overcast
7:00 PM 42 °F - 38 °F 83% 30.32 in 10 mi SSE 5.8 mph - -   Overcast
7:00 PM 42.8 °F 39.3 °F 39.2 °F 87% 30.32 in 9.0 mi SE 5.8 mph - N/A   Overcast
8:00 PM 42.8 °F 38.0 °F 39.2 °F 87% 30.30 in 9.0 mi SSE 8.1 mph - N/A   Overcast
9:00 PM 41.0 °F 37.1 °F 39.2 °F 93% 30.28 in 9.0 mi SSE 5.8 mph - N/A   Overcast
9:12 PM 41.0 °F 36.4 °F 39.2 °F 93% 30.28 in 9.0 mi SSE 6.9 mph - N/A Rain Light Rain
10:00 PM 41.0 °F 35.2 °F 39.2 °F 93% 30.27 in 9.0 mi SSE 9.2 mph - N/A Rain Light Rain
11:00 PM 41.0 °F 37.1 °F 41.0 °F 100% 30.26 in 5.0 mi SSE 5.8 mph - N/A Rain Light Rain
11:51 PM 41.0 °F 36.4 °F 41.0 °F 100% 30.24 in 4.0 mi SSE 6.9 mph - N/A Rain Light Rain
11:52 PM 41.0 °F 36.4 °F 41.0 °F 100% 30.24 in 4.0 mi SSE 6.9 mph - N/A Rain Light Rain